Find STARLINK-37729

NORAD ID: 799501004 Int'l Des: 2026-143E Constellation: starlink operational

Current View

Loading 3D Globe...

About STARLINK-37729

STARLINK-37729 (NORAD 799501004) is a starlink constellation satellite launched Jun 12, 2026

About STARLINK-37729

Description loading...

Upcoming Passes

Passes for default location (London). Set your location on the main map for personalized predictions.

Altitude History

Loading altitude history...

Two-Line Element Set

1 99999C 2026143E 26172.91159721 .00517550 00000-0 807870-4 0 1726
2 99999 97.2831 215.7468 0010772 276.7257 26.7340 16.03671104 15
Epoch: Jun 21, 2026 • Age: 8 hours